Regional Weather Roundup
Issued by NWS

Home | Current Version | Previous Version | Text Only | Print | Product List | Glossary Off
Versions: 1 2 3 4 5 6 7 8 9 10 11 12 13 14 15 16 17 18 19 20 21 22 23 24 25 26 27 28 29 30 31 32 33 34 35 36 37 38 39 40 41 42 43 44 45 46 47 48 49 50

000
ASUS43 KMKX 260211
RWRWI

WISCONSIN REGIONAL WEATHER ROUNDUP
NATIONAL WEATHER SERVICE MILWAUKEE/SULLIVAN WI
900 PM CDT TUE JUL 25 2017

NOTE: "FAIR" INDICATES FEW OR NO CLOUDS BELOW 12,000 FEET WITH NO
SIGNIFICANT WEATHER AND/OR OBSTRUCTIONS TO VISIBILITY.

WIZ001-002-006>008-014>016-023>028-260300-
NORTHWEST WISCONSIN

CITY           SKY/WX    TMP DP  RH WIND       PRES   REMARKS
SUPERIOR ARPT  NOT AVBL
ASHLAND        CLOUDY    72  65  78 S7        29.95R
HAYWARD        CLOUDY    73  65  75 S12       29.98R
SIREN          MOCLDY    74  67  78 SE3       29.95R
CUMBERLAND     PTCLDY    70  64  83 S7        29.98R
RICE LAKE      PTCLDY    72  65  80 SE9       29.99S HAZE
CHETEK         MOCLDY    72  67  85 SE10      29.98F
LADYSMITH      CLOUDY    72  65  76 S8        30.02S
EAU CLAIRE     CLOUDY    73  67  81 S9        29.98F
MENOMONIE      MOCLDY    73  69  86 SE8       29.98S
NEW RICHMOND   CLOUDY    76  69  78 S9G18     29.95F
OSCEOLA        CLOUDY    77  71  81 S7        29.96F
$$

WIZ003>005-009-010-017-018-260300-
NORTH CENTRAL WISCONSIN

CITY           SKY/WX    TMP DP  RH WIND       PRES   REMARKS
MANITOWISH WTR CLOUDY    67  64  89 S9G17     30.01F
ARBOR VITAE    PTCLDY    69  63  80 S13       30.02F
WOODRUFF       PTCLDY    69  63  80 S13       30.02F
RHINELANDER    CLOUDY    67  62  84 S5        30.06F
EAGLE RIVER    CLOUDY    67  57  72 S7        30.04S
LAND O LAKES   CLOUDY    68  58  70 S9G16     30.05S
PHILLIPS       CLOUDY    68  64  85 S9        30.02S
TOMAHAWK         N/A     65  62  90 CALM      30.05F
MEDFORD        CLOUDY    68  63  84 S8        30.05S
MERRILL        NOT AVBL
$$

WIZ029-030-035-036-043>047-260300-
CENTRAL WISCONSIN

CITY           SKY/WX    TMP DP  RH WIND       PRES   REMARKS
WAUSAU         CLOUDY    72  62  71 S8        30.05S
MOSINEE        MOCLDY    70  63  78 S8        30.08R
MARSHFIELD     PTCLDY    70  63  78 SE6       30.06S
STEVENS POINT  CLOUDY    71  62  73 S7        30.09R
WAUPACA        MOCLDY    73  63  69 S7        30.06F
WAUTOMA        PTCLDY    72  63  73 S7        30.08R
WISC RAPIDS    CLOUDY    72  64  76 S7        30.08R
CAMP DOUGLAS   MOCLDY    72  66  83 SE3       30.06R
$$

WIZ011>013-019>022-031-037>040-048>050-260300-
NORTHEAST WISCONSIN

CITY           SKY/WX    TMP DP  RH WIND       PRES   REMARKS
ANTIGO         RAIN      63  63 100 SE6       30.09R
SHAWANO        CLOUDY    73  62  68 CALM      30.08R
OCONTO         MOCLDY    70  60  71 S5        30.09R
STURGEON BAY     N/A     67  59  75 S13       30.08R
GREEN BAY      CLOUDY    69  63  81 S12       30.08R THUNDER
MANITOWOC      LGT RAIN  68  61  78 S10G18    30.10R
APPLETON       MOCLDY    72  57  60 S13       30.07R
CLINTONVILLE   CLOUDY   N/A N/A N/A S7        30.06S
OSHKOSH        CLOUDY    70  61  73 S8        30.08S
$$

WIZ032>034-041-042-053>061-260300-
SOUTHWEST WISCONSIN

CITY           SKY/WX    TMP DP  RH WIND       PRES   REMARKS
LA CROSSE      CLOUDY    79  69  71 S8        30.02S HX  81
SPARTA         CLOUDY    72  66  83 CALM      30.05F
VIROQUA        CLOUDY    72  69  89 S7        30.07R
BOSCOBEL       CLOUDY    75  67  76 S5        30.06R
PRAIRIE DU CHI CLOUDY    74  67  76 E5        30.05S
PLATTEVILLE    CLOUDY    71  70  95 SE6       30.10R
$$

WIZ056-057-062-063-064-067-068-260300-
SOUTH CENTRAL WISCONSIN

CITY           SKY/WX    TMP DP  RH WIND       PRES   REMARKS
REEDSBURG      CLOUDY    72  67  83 S7        30.07R
BARABOO/DELLS  CLOUDY    72  63  73 S9        30.07F
LONE ROCK      CLOUDY    72  67  84 SE5       30.07R HAZE
MINERAL POINT  CLOUDY    72  68  88 S7        30.10R
MADISON        MOCLDY    73  63  70 S8        30.10R
MIDDLETON      PTCLDY    73  63  69 S8        30.11R
WATERTOWN      PTCLDY    69  64  83 S3        30.12R
MONROE         CLEAR     70  63  78 S7        30.12R
JANESVILLE     MOCLDY    73  61  64 S9        30.11R
$$

WIZ051-052-058>065-066-070>072-260300-
SOUTHEAST WISCONSIN

CITY           SKY/WX    TMP DP  RH WIND       PRES   REMARKS
MILWAUKEE      MOCLDY    72  59  63 S9        30.13R
WAUKESHA       MOCLDY    70  57  64 SE9       30.14R
MILWAUKEE/TIMM CLEAR     72  54  53 S8        30.13R
RACINE         CLEAR     71  61  70 S10       30.15R
KENOSHA        CLEAR     71  57  61 S10       30.15R
FOND DU LAC    CLOUDY    71  60  68 S9        30.09R
SHEBOYGAN      CLOUDY    69  60  73 S12       30.11R
WEST BEND      PTCLDY    70  57  64 S6        30.12S
JUNEAU         PTCLDY    69  61  73 S7        30.12R
$$

LSZ147-162-260300-
LAKE SUPERIOR

STATION/POSITION TIME  TEMP    WIND        PRES    WAVE
                       AIR SEA DIR/SP/G            HT/PER
                 (UTC) (F)     (DEG/KT/KT) (MB)    (FT/S)
W MID LAKE BUOY  0050   60 53  180/ 12/ 12 1012.2F   0
DEVILS ISLAND    0100   72     180/ 10/ 13 1012.2F
PORT WING        0030   74     200/  6/  8 1012.5S
SAXON HARBOR     0140   73     190/  7/ 14 1012.9R
$$

LMZ867-665-643>646-260300-
LAKE MICHIGAN

STATION/POSITION TIME  TEMP    WIND        PRES    WAVE
                       AIR SEA DIR/SP/G            HT/PER
                 (UTC) (F)     (DEG/KT/KT) (MB)    (FT/S)
CHAMBERS ISLAND  0140   70     160/  8/ 15 1017.3S
S GREEN BAY BUOY 0200   71 72  170/ 17/ 23 1017.7R
N MID LAKE BUOY  0150   69 66  200/ 17/ 21 1018.9F   2/ 4
NORTHPORT PIER   0200   69     160/  7/ 21 1018.6
KEWAUNEE LAKESHO 0148   70     180/ 13/ 16 1018.5R
SHEBOYGAN LAKESH 0200   69     180/ 16/ 18 1019.3R
PORT WASHINGTON  0140   71     180/  8/ 12 1020.3S
ATWATER BUOY     0009   70 69  170/ 14/ 16 1019.7F
MILWAUKEE LAKESH 0150   72     180/  9/ 10   N/A
S MID LAKE BUOY  0050   72 71  140/  6/  8 1020.4R   1
KENOSHA   LAKESH 0200   71     190/  8/ 12 1020.3
$$

TC  - TEMPERATURE IN CELSIUS
VSB - VISIBILITY IN STATUTE MILES
WCI - WIND CHILL INDEX
HX  - HEAT INDEX





USA.gov is the U.S. government's official web portal to all federal, state and local government web resources and services.